sat.trackr.live / text

‹ back to catalog

STARLINK-4020

NORAD 52703 · 2022-053AZ

PAYLOAD ACTIVE UNKNOWN

§ Identity

Operator
Country
US
Launch date
2022-05-18
Launch site
AFETR
Launch vehicle
Mass (kg)
RCS (m²)

Purposes: comms

External: N2YO · Heavens-Above · Gunter

§ Orbital elements

Epoch: 2026-09-19T19:16:19.093728Z

Period
93.79 min
Inclination
53.1609°
Eccentricity
0.0001108
Mean motion
15.35404167 rev/d
Perigee alt
459.0 km
Apogee alt
460.5 km
Semi-major
6,837.9 km
B*
3.4355e-5
RAAN
329.2204°
Arg perigee
82.1037°
Mean anomaly
278.0091°
Rev number
23,952

§ Raw data

STARLINK-40201 52703U 22053AZ  26262.80299877  .00000818  00000+0  34355-4 0  99972 52703  53.1609 329.2204 0001108  82.1037 278.0091 15.35404167239520

JSON: /api/v1/satellites/52703 · /tle

For live sub-satellite position, see the globe view (requires WebGL).

§ Visibility from observer

Set your observer location to see the next 7 days of passes ≥ 10°. The values pass through the URL so the page stays shareable.

No JS? Fill the form by hand. The geolocation button needs JavaScript.